Tracking 30509 objects as of 18-May-2025
HD Live streaming from Space Station
objects crossing your sky now

SSU 1

Track SSU 1 now!
10-day predictions
SSU 1 is classified as:


NORAD ID: 8835
Int'l Code: 1976-038C
Perigee: 649.4 km
Apogee: 1,272.2 km
Inclination: 63.4 °
Period: 104.1 minutes
Semi major axis: 7331 km
RCS: Unknown
Launch date: April 30, 1976
Source: United States (US)
Launch site: AIR FORCE WESTERN TEST RANGE (AFWTR)
Your satellite tracking list
Your tracking list is empty




NASA's NSSDC Master Catalog

Two Line Element Set (TLE):
1 08835U 76038C   25137.71079204  .00000512  00000-0  28429-3 0  9992
2 08835  63.3570 270.9439 0424704 174.7930 185.7752 13.82877928304126
Source of the keplerian elements: McCants